Time,TemperatureF,DewpointF,PressureIn,WindDirection,WindDirectionDegrees,WindSpeedMPH,WindSpeedGustMPH,Humidity,HourlyPrecipIn,Conditions,Clouds,dailyrainin,SoftwareType,DateUTC
2013-02-24 00:00:00,45.8,38.0,29.97,ESE,103,0.0,-999.0,75,-99.99,,,0.00,weatherlink.com 1.10,2013-02-24 06:00:00,
2013-02-24 00:15:00,45.2,38.0,29.97,ESE,103,0.0,-999.0,76,-99.99,,,0.00,weatherlink.com 1.10,2013-02-24 06:15:00,
2013-02-24 00:30:00,44.5,38.0,29.97,ESE,103,0.0,-999.0,77,-99.99,,,0.00,weatherlink.com 1.10,2013-02-24 06:30:00,
2013-02-24 00:45:00,43.8,37.0,29.97,ESE,103,0.0,-999.0,78,-99.99,,,0.00,weatherlink.com 1.10,2013-02-24 06:45:00,
2013-02-24 01:00:00,43.5,38.0,29.98,ESE,103,0.0,-999.0,81,-99.99,,,0.00,weatherlink.com 1.10,2013-02-24 07:00:00,
2013-02-24 01:15:00,43.2,38.0,29.98,ESE,103,0.0,-999.0,82,-99.99,,,0.00,weatherlink.com 1.10,2013-02-24 07:15:00,
2013-02-24 01:30:00,42.8,38.0,29.98,ESE,103,0.0,-999.0,83,-99.99,,,0.00,weatherlink.com 1.10,2013-02-24 07:30:00,
2013-02-24 01:45:00,42.2,37.0,29.97,ESE,103,0.0,-999.0,83,-99.99,,,0.00,weatherlink.com 1.10,2013-02-24 07:45:00,
2013-02-24 02:00:00,41.6,37.0,29.97,ESE,103,0.0,-999.0,83,-99.99,,,0.00,weatherlink.com 1.10,2013-02-24 08:00:00,
2013-02-24 02:15:00,41.1,36.0,29.96,ESE,103,0.0,-999.0,83,-99.99,,,0.00,weatherlink.com 1.10,2013-02-24 08:15:00,
2013-02-24 02:30:00,40.8,36.0,29.96,ESE,103,0.0,-999.0,84,-99.99,,,0.00,weatherlink.com 1.10,2013-02-24 08:30:00,
2013-02-24 02:45:00,40.3,36.0,29.95,ESE,103,0.0,-999.0,85,-99.99,,,0.00,weatherlink.com 1.10,2013-02-24 08:45:00,
2013-02-24 03:00:00,40.1,36.0,29.95,ESE,103,0.0,-999.0,86,-99.99,,,0.00,weatherlink.com 1.10,2013-02-24 09:00:00,
2013-02-24 03:15:00,40.3,37.0,29.94,ESE,103,0.0,-999.0,87,-99.99,,,0.00,weatherlink.com 1.10,2013-02-24 09:15:00,
2013-02-24 03:30:00,40.3,37.0,29.94,ESE,103,0.0,-999.0,88,-99.99,,,0.00,weatherlink.com 1.10,2013-02-24 09:30:00,
2013-02-24 03:45:00,40.2,37.0,29.94,ESE,103,0.0,-999.0,88,-99.99,,,0.00,weatherlink.com 1.10,2013-02-24 09:45:00,
2013-02-24 04:00:00,39.8,37.0,29.94,ESE,103,0.0,-999.0,89,-99.99,,,0.00,weatherlink.com 1.10,2013-02-24 10:00:00,
2013-02-24 04:15:00,39.3,36.0,29.94,ESE,103,0.0,-999.0,89,-99.99,,,0.00,weatherlink.com 1.10,2013-02-24 10:15:00,
2013-02-24 04:30:00,39.2,36.0,29.94,ENE,59,0.0,-999.0,89,-99.99,,,0.00,weatherlink.com 1.10,2013-02-24 10:30:00,
2013-02-24 04:45:00,40.3,38.0,29.94,ENE,69,0.0,-999.0,90,-99.99,,,0.00,weatherlink.com 1.10,2013-02-24 10:45:00,
2013-02-24 05:00:00,40.9,38.0,29.94,ENE,69,1.0,-999.0,90,-99.99,,,0.00,weatherlink.com 1.10,2013-02-24 11:00:00,
2013-02-24 05:15:00,41.2,39.0,29.94,East,100,0.0,-999.0,90,-99.99,,,0.00,weatherlink.com 1.10,2013-02-24 11:15:00,
2013-02-24 05:30:00,41.5,39.0,29.93,ENE,78,0.0,-999.0,90,-99.99,,,0.00,weatherlink.com 1.10,2013-02-24 11:30:00,
2013-02-24 05:45:00,41.8,39.0,29.94,East,86,0.0,-999.0,90,-99.99,,,0.00,weatherlink.com 1.10,2013-02-24 11:45:00,
2013-02-24 06:00:00,41.9,39.0,29.94,East,89,0.0,-999.0,89,-99.99,,,0.00,weatherlink.com 1.10,2013-02-24 12:00:00,
2013-02-24 06:15:00,41.9,39.0,29.94,East,83,0.0,-999.0,89,-99.99,,,0.00,weatherlink.com 1.10,2013-02-24 12:15:00,
2013-02-24 06:30:00,41.6,38.0,29.95,East,83,0.0,-999.0,88,-99.99,,,0.00,weatherlink.com 1.10,2013-02-24 12:30:00,
2013-02-24 06:45:00,41.3,38.0,29.96,East,83,0.0,-999.0,88,-99.99,,,0.00,weatherlink.com 1.10,2013-02-24 12:45:00,
2013-02-24 07:00:00,41.1,38.0,29.97,East,83,0.0,-999.0,87,-99.99,,,0.00,weatherlink.com 1.10,2013-02-24 13:00:00,
2013-02-24 07:15:00,40.9,37.0,29.98,East,83,0.0,-999.0,87,-99.99,,,0.00,weatherlink.com 1.10,2013-02-24 13:15:00,
2013-02-24 07:30:00,41.2,38.0,29.98,East,83,0.0,-999.0,88,-99.99,,,0.00,weatherlink.com 1.10,2013-02-24 13:30:00,
2013-02-24 07:45:00,42.5,40.0,29.99,East,83,0.0,-999.0,89,-99.99,,,0.00,weatherlink.com 1.10,2013-02-24 13:45:00,
2013-02-24 08:00:00,44.3,41.0,30.00,ENE,66,1.0,-999.0,89,-99.99,,,0.00,weatherlink.com 1.10,2013-02-24 14:00:00,
2013-02-24 08:15:00,46.1,43.0,30.00,ENE,66,1.0,-999.0,87,-99.99,,,0.00,weatherlink.com 1.10,2013-02-24 14:15:00,
2013-02-24 08:30:00,48.2,43.0,30.00,NNE,30,0.0,-999.0,83,-99.99,,,0.00,weatherlink.com 1.10,2013-02-24 14:30:00,
2013-02-24 08:45:00,49.9,43.0,29.99,NE,42,1.0,-999.0,78,-99.99,,,0.00,weatherlink.com 1.10,2013-02-24 14:45:00,
2013-02-24 09:00:00,51.3,43.0,29.99,ENE,65,0.0,-999.0,73,-99.99,,,0.00,weatherlink.com 1.10,2013-02-24 15:00:00,
2013-02-24 09:15:00,52.6,44.0,29.99,ENE,69,1.0,-999.0,72,-99.99,,,0.00,weatherlink.com 1.10,2013-02-24 15:15:00,
2013-02-24 09:30:00,53.5,45.0,29.99,NE,42,4.0,-999.0,72,-99.99,,,0.00,weatherlink.com 1.10,2013-02-24 15:30:00,
2013-02-24 09:45:00,54.5,45.0,29.98,ENE,61,2.0,-999.0,71,-99.99,,,0.00,weatherlink.com 1.10,2013-02-24 15:45:00,
2013-02-24 10:00:00,55.7,45.0,29.98,ENE,72,2.0,-999.0,68,-99.99,,,0.00,weatherlink.com 1.10,2013-02-24 16:00:00,
2013-02-24 10:15:00,58.3,46.0,29.98,NNE,24,1.0,-999.0,64,-99.99,,,0.00,weatherlink.com 1.10,2013-02-24 16:15:00,
2013-02-24 10:30:00,59.2,44.0,29.97,South,175,1.0,-999.0,57,-99.99,,,0.00,weatherlink.com 1.10,2013-02-24 16:30:00,
2013-02-24 10:45:00,60.2,44.0,29.96,SSE,148,5.0,-999.0,55,-99.99,,,0.00,weatherlink.com 1.10,2013-02-24 16:45:00,
2013-02-24 11:01:00,61.2,44.0,29.96,NNE,31,3.0,-999.0,54,-99.99,,,0.00,weatherlink.com 1.10,2013-02-24 17:01:00,
2013-02-24 11:16:00,61.2,42.0,29.95,South,172,1.0,-999.0,50,-99.99,,,0.00,weatherlink.com 1.10,2013-02-24 17:16:00,
2013-02-24 11:31:00,63.2,43.0,29.94,East,95,2.0,-999.0,48,-99.99,,,0.00,weatherlink.com 1.10,2013-02-24 17:31:00,
2013-02-24 11:46:00,63.1,41.0,29.93,ESE,104,1.0,-999.0,45,-99.99,,,0.00,weatherlink.com 1.10,2013-02-24 17:46:00,
2013-02-24 12:01:00,64.3,41.0,29.92,SE,141,2.0,-999.0,43,-99.99,,,0.00,weatherlink.com 1.10,2013-02-24 18:01:00,
2013-02-24 12:16:00,65.3,42.0,29.91,ESE,112,10.0,-999.0,43,-99.99,,,0.00,weatherlink.com 1.10,2013-02-24 18:16:00,
2013-02-24 12:31:00,65.0,42.0,29.91,East,88,3.0,-999.0,43,-99.99,,,0.00,weatherlink.com 1.10,2013-02-24 18:31:00,
2013-02-24 12:46:00,65.8,41.0,29.90,East,88,5.0,-999.0,41,-99.99,,,0.00,weatherlink.com 1.10,2013-02-24 18:46:00,
2013-02-24 13:01:00,66.3,42.0,29.89,SE,130,1.0,-999.0,41,-99.99,,,0.00,weatherlink.com 1.10,2013-02-24 19:01:00,
2013-02-24 13:16:00,66.0,40.0,29.88,NNE,27,0.0,-999.0,39,-99.99,,,0.00,weatherlink.com 1.10,2013-02-24 19:16:00,
2013-02-24 13:31:00,67.1,41.0,29.87,SE,136,1.0,-999.0,39,-99.99,,,0.00,weatherlink.com 1.10,2013-02-24 19:31:00,
2013-02-24 13:46:00,67.6,43.0,29.86,East,85,3.0,-999.0,41,-99.99,,,0.00,weatherlink.com 1.10,2013-02-24 19:46:00,
2013-02-24 14:01:00,69.1,43.0,29.84,NE,54,2.0,-999.0,39,-99.99,,,0.00,weatherlink.com 1.10,2013-02-24 20:01:00,
2013-02-24 14:16:00,69.1,44.0,29.84,East,83,0.0,-999.0,40,-99.99,,,0.00,weatherlink.com 1.10,2013-02-24 20:16:00,
2013-02-24 14:31:00,68.8,42.0,29.83,ESE,120,2.0,-999.0,38,-99.99,,,0.00,weatherlink.com 1.10,2013-02-24 20:31:00,
2013-02-24 14:46:00,68.8,42.0,29.82,East,99,8.0,-999.0,38,-99.99,,,0.00,weatherlink.com 1.10,2013-02-24 20:46:00,
2013-02-24 15:01:00,68.8,43.0,29.81,ESE,102,3.0,-999.0,39,-99.99,,,0.00,weatherlink.com 1.10,2013-02-24 21:01:00,
2013-02-24 15:16:00,69.1,42.0,29.81,ENE,72,1.0,-999.0,38,-99.99,,,0.00,weatherlink.com 1.10,2013-02-24 21:16:00,
2013-02-24 15:31:00,68.1,43.0,29.80,ESE,119,3.0,-999.0,41,-99.99,,,0.00,weatherlink.com 1.10,2013-02-24 21:31:00,
2013-02-24 15:46:00,67.8,43.0,29.80,South,174,3.0,-999.0,41,-99.99,,,0.00,weatherlink.com 1.10,2013-02-24 21:46:00,
2013-02-24 16:01:00,67.3,43.0,29.80,ESE,103,1.0,-999.0,42,-99.99,,,0.00,weatherlink.com 1.10,2013-02-24 22:01:00,
2013-02-24 16:16:00,67.1,44.0,29.80,ESE,102,0.0,-999.0,43,-99.99,,,0.00,weatherlink.com 1.10,2013-02-24 22:16:00,
2013-02-24 16:31:00,67.1,44.0,29.79,ESE,123,1.0,-999.0,44,-99.99,,,0.00,weatherlink.com 1.10,2013-02-24 22:31:00,
2013-02-24 16:46:00,66.8,45.0,29.78,North,3,2.0,-999.0,46,-99.99,,,0.00,weatherlink.com 1.10,2013-02-24 22:46:00,
2013-02-24 17:01:00,66.3,46.0,29.78,ENE,78,3.0,-999.0,48,-99.99,,,0.00,weatherlink.com 1.10,2013-02-24 23:01:00,
2013-02-24 17:16:00,65.8,46.0,29.77,East,100,4.0,-999.0,49,-99.99,,,0.00,weatherlink.com 1.10,2013-02-24 23:16:00,
2013-02-24 17:31:00,65.5,46.0,29.75,East,93,2.0,-999.0,49,-99.99,,,0.00,weatherlink.com 1.10,2013-02-24 23:31:00,
2013-02-24 17:46:00,65.2,45.0,29.75,NE,45,0.0,-999.0,49,-99.99,,,0.00,weatherlink.com 1.10,2013-02-24 23:46:00,
2013-02-24 18:01:00,65.0,46.0,29.77,NE,45,0.0,-999.0,50,-99.99,,,0.00,weatherlink.com 1.10,2013-02-25 00:01:00,
2013-02-24 18:16:00,64.5,45.0,29.79,NE,45,0.0,-999.0,50,-99.99,,,0.00,weatherlink.com 1.10,2013-02-25 00:16:00,
2013-02-24 18:31:00,64.0,46.0,29.78,NE,45,0.0,-999.0,53,-99.99,,,0.00,weatherlink.com 1.10,2013-02-25 00:31:00,
2013-02-24 18:46:00,63.5,46.0,29.76,NE,45,0.0,-999.0,53,-99.99,,,0.00,weatherlink.com 1.10,2013-02-25 00:46:00,
2013-02-24 19:01:00,63.1,46.0,29.74,North,6,1.0,-999.0,54,-99.99,,,0.00,weatherlink.com 1.10,2013-02-25 01:01:00,
2013-02-24 19:16:00,62.6,46.0,29.74,North,8,1.0,-999.0,54,-99.99,,,0.00,weatherlink.com 1.10,2013-02-25 01:16:00,
2013-02-24 19:31:00,62.3,46.0,29.73,North,8,0.0,-999.0,55,-99.99,,,0.00,weatherlink.com 1.10,2013-02-25 01:31:00,
2013-02-24 19:46:00,61.6,46.0,29.76,North,8,0.0,-999.0,56,-99.99,,,0.00,weatherlink.com 1.10,2013-02-25 01:46:00,
2013-02-24 20:01:00,60.9,45.0,29.77,ESE,103,1.0,-999.0,57,-99.99,,,0.00,weatherlink.com 1.10,2013-02-25 02:01:00,
2013-02-24 20:16:00,60.7,45.0,29.74,East,97,0.0,-999.0,57,-99.99,,,0.00,weatherlink.com 1.10,2013-02-25 02:16:00,
2013-02-24 20:31:00,60.5,45.0,29.75,East,97,0.0,-999.0,57,-99.99,,,0.00,weatherlink.com 1.10,2013-02-25 02:31:00,
2013-02-24 20:46:00,60.4,45.0,29.76,East,97,0.0,-999.0,58,-99.99,,,0.00,weatherlink.com 1.10,2013-02-25 02:46:00,
2013-02-24 21:01:00,60.5,45.0,29.75,ENE,78,0.0,-999.0,57,-99.99,,,0.00,weatherlink.com 1.10,2013-02-25 03:01:00,
2013-02-24 21:16:00,60.7,45.0,29.75,NE,40,2.0,-999.0,57,-99.99,,,0.00,weatherlink.com 1.10,2013-02-25 03:16:00,
2013-02-24 21:31:00,60.9,45.0,29.73,NE,42,0.0,-999.0,57,-99.99,,,0.00,weatherlink.com 1.10,2013-02-25 03:31:00,
2013-02-24 21:46:00,60.7,46.0,29.75,SSE,155,0.0,-999.0,58,-99.99,,,0.00,weatherlink.com 1.10,2013-02-25 03:46:00,
2013-02-24 22:01:00,60.7,46.0,29.73,ESE,102,3.0,-999.0,59,-99.99,,,0.00,weatherlink.com 1.10,2013-02-25 04:01:00,
2013-02-24 22:16:00,60.5,46.0,29.72,ESE,107,1.0,-999.0,60,-99.99,,,0.00,weatherlink.com 1.10,2013-02-25 04:16:00,
2013-02-24 22:31:00,60.5,47.0,29.72,ESE,107,0.0,-999.0,61,-99.99,,,0.00,weatherlink.com 1.10,2013-02-25 04:31:00,
2013-02-24 22:46:00,60.7,47.0,29.71,ESE,102,0.0,-999.0,62,-99.99,,,0.00,weatherlink.com 1.10,2013-02-25 04:46:00,
2013-02-24 23:01:00,61.0,50.0,29.72,South,171,2.0,-999.0,67,-99.99,,,0.00,weatherlink.com 1.10,2013-02-25 05:01:00,
2013-02-24 23:16:00,61.8,53.0,29.72,SSE,154,0.0,-999.0,74,-99.99,,,0.00,weatherlink.com 1.10,2013-02-25 05:16:00,
2013-02-24 23:31:00,62.0,55.0,29.70,SSE,151,0.0,-999.0,77,-99.99,,,0.00,weatherlink.com 1.10,2013-02-25 05:31:00,
2013-02-24 23:46:00,62.0,55.0,29.70,South,172,0.0,-999.0,79,-99.99,,,0.00,weatherlink.com 1.10,2013-02-25 05:46:00,